This is the latest recevied weather packets stored in our database for station/object LZ1PDB-12. If no packets are shown the sender has not sent any weather packets the latest 10 day(s).
| Time | Temp. | Humidity | Pressure | Rain* | Wind** | Luminosity | Snow |
|---|---|---|---|---|---|---|---|
| 1777668072 | 9.44° C | 47% | 1027.9 hPa | - | - | - | - |
| 1777667172 | 9.44° C | 47% | 1027.8 hPa | - | - | - | - |
| 1777666272 | 9.44° C | 48% | 1027.9 hPa | - | - | - | - |
| 1777665372 | 10° C | 48% | 1027.8 hPa | - | - | - | - |
| 1777664472 | 10° C | 48% | 1027.9 hPa | - | - | - | - |
| 1777663572 | 10° C | 48% | 1027.8 hPa | - | - | - | - |
| 1777662671 | 10° C | 48% | 1027.6 hPa | - | - | - | - |
| 1777661770 | 10° C | 47% | 1027.6 hPa | - | - | - | - |
| 1777660870 | 10.56° C | 47% | 1027.5 hPa | - | - | - | - |
| 1777659970 | 10.56° C | 47% | 1027.5 hPa | - | - | - | - |
| 1777659069 | 10.56° C | 47% | 1027.4 hPa | - | - | - | - |
| 1777658169 | 10.56° C | 46% | 1027.2 hPa | - | - | - | - |
| 1777657269 | 11.11° C | 45% | 1027 hPa | - | - | - | - |
| 1777656369 | 11.11° C | 45% | 1026.9 hPa | - | - | - | - |
| 1777655468 | 11.11° C | 45% | 1027 hPa | - | - | - | - |
| 1777654568 | 11.11° C | 44% | 1026.9 hPa | - | - | - | - |
| 1777653668 | 11.67° C | 43% | 1026.9 hPa | - | - | - | - |
| 1777652767 | 11.67° C | 43% | 1026.9 hPa | - | - | - | - |
| 1777651867 | 11.67° C | 43% | 1026.9 hPa | - | - | - | - |
| 1777650967 | 11.67° C | 42% | 1026.9 hPa | - | - | - | - |
| 1777650066 | 12.22° C | 42% | 1026.9 hPa | - | - | - | - |
| 1777649166 | 12.22° C | 42% | 1027 hPa | - | - | - | - |
| 1777648266 | 12.78° C | 41% | 1027 hPa | - | - | - | - |
| 1777647366 | 12.78° C | 41% | 1027.2 hPa | - | - | - | - |
| 1777646466 | 12.22° C | 42% | 1027.2 hPa | - | - | - | - |
* Rain since midnight (hover to see other rain measurements)
** Current wind speed in m/s (hover to see current wind gust speed)